User: anonymous   Login
Location: Unspecified
(50.7693°N, 0.0000°E)
Time: 13:23:46
(UTC+00:00)
Language:

Transit 4A - Orbit

View from above orbital plane
View from above orbital plane
View from above satellite
View from above satellite

Ground track
Ground track

The orbit data is extracted from the following two-line orbital elements,

1   116U 61015A   19175.16593487 -.00000075  00000-0  16913-5 0  9995
2   116  66.8104   6.5190 0082671 261.4926  97.6778 13.91753970942307
Epoch (UTC): 24 June 2019 03:58:56
Eccentricity: 0.0082671
inclination: 66.8104°
perigee height: 862 km
apogee height: 983 km
right ascension of ascending node: 6.5190°
argument of perigee: 261.4926°
revolutions per day: 13.91753970
mean anomaly at epoch: 97.6778°
orbit number at epoch: 94230

The dashed part of the orbit path shows where the satellite is in the earth's shadow,  

DLR